This demonstration page uses our WeatherBlox Daily Observations layout. Learn more.

Hourly Observations for April 28, 2019

Temp ( °F °C ) Dew Point ( °F °C ) Humidity (%) Winds ( mph kmh ) Pressure ( in mb ) Visibility ( mi km ) Precip ( " mm )
12:15 am 00:15 Cloudy 55 13 46 8 72 72 W 8 13 29.97 1015 10 16.09344 0 0
12:35 am 00:35 Cloudy 54 12 48 9 82 82 N 5 7 29.94 1014 10 16.09344 0 0
12:55 am 00:55 Cloudy 54 12 50 10 88 88 NE 3 6 29.94 1014 10 16.09344 0 0
1:15 am 01:15 Cloudy 54 12 48 9 82 82 Calm 29.97 1015 10 16.09344 0 0
1:35 am 01:35 Cloudy 54 12 50 10 88 88 ENE 3 6 29.94 1014 10 16.09344 0 0
1:55 am 01:55 Cloudy 52 11 52 11 100 100 ESE 3 6 29.94 1014 10 16.09344 0 0
2:15 am 02:15 Cloudy 52 11 50 10 94 94 ENE 5 7 29.91 1013 10 16.09344 0 0
2:35 am 02:35 Cloudy 52 11 50 10 94 94 Calm 29.91 1013 10 16.09344 0 0
2:55 am 02:55 Cloudy 52 11 50 10 94 94 Calm 29.91 1013 10 16.09344 0 0
3:15 am 03:15 Cloudy 52 11 52 11 100 100 Calm 29.91 1013 10 16.09344 0 0
3:35 am 03:35 Cloudy 52 11 50 10 94 94 SE 3 6 29.88 1012 10 16.09344 0 0
3:55 am 03:55 Cloudy 52 11 50 10 94 94 ESE 3 6 29.88 1012 10 16.09344 0 0
4:15 am 04:15 Cloudy 52 11 50 10 94 94 Calm 29.88 1012 10 16.09344 0 0
4:35 am 04:35 Cloudy 52 11 52 11 100 100 Calm 29.88 1012 10 16.09344 0 0
4:55 am 04:55 Cloudy 52 11 52 11 100 100 S 6 9 29.88 1012 10 16.09344 0 0
5:15 am 05:15 Cloudy 52 11 52 11 100 100 S 3 6 29.88 1012 10 16.09344 0 0
5:35 am 05:35 Cloudy 52 11 52 11 100 100 S 3 6 29.88 1012 10 16.09344 0 0
5:55 am 05:55 Cloudy 50 10 50 10 100 100 Calm 29.88 1012 10 16.09344 0 0
6:15 am 06:15 Cloudy 50 10 50 10 100 100 SSW 3 6 29.88 1012 10 16.09344 0 0
6:35 am 06:35 Cloudy 50 10 50 10 100 100 Calm 29.88 1012 10 16.09344 0 0
6:55 am 06:55 Cloudy 50 10 50 10 100 100 SSW 3 6 29.88 1012 10 16.09344 0 0
7:15 am 07:15 Cloudy 50 10 50 10 100 100 SSW 3 6 29.88 1012 10 16.09344 0 0
7:35 am 07:35 Cloudy 50 10 50 10 100 100 WNW 7 11 29.94 1014 10 16.09344 0 0
7:55 am 07:55 Cloudy 50 10 50 10 100 100 Calm 29.94 1014 10 16.09344 0 0
8:15 am 08:15 Cloudy 50 10 50 10 100 100 Calm 29.94 1014 7 11.265408 0 0
8:35 am 08:35 Cloudy 52 11 52 11 100 100 Calm 29.91 1013 10 16.09344 0 0
8:55 am 08:55 Cloudy 52 11 52 11 100 100 Calm 29.94 1014 10 16.09344 0 0
9:15 am 09:15 Cloudy 52 11 52 11 100 100 Calm 29.91 1013 10 16.09344 0 0
9:35 am 09:35 Cloudy 52 11 52 11 100 100 Calm 29.91 1013 10 16.09344 0 0
9:55 am 09:55 Cloudy 52 11 52 11 100 100 ESE 3 6 29.88 1012 10 16.09344 0 0
10:15 am 10:15 Cloudy 54 12 54 12 100 100 SE 3 6 29.88 1012 10 16.09344 0 0
10:30 am 10:30 Mostly Cloudy 55 13 54 12 94 94 SSE 3 6 29.88 1012 10 16.09344 0 0
10:55 am 10:55 Mostly Cloudy 59 15 54 12 82 82 S 7 11 29.88 1012 10 16.09344 0 0
11:15 am 11:15 Cloudy 61 16 54 12 77 77 S 5 7 29.91 1013 10 16.09344 0 0
11:35 am 11:35 Mostly Cloudy 63 17 54 12 73 73 S 5 7 29.88 1012 10 16.09344 0 0
11:55 am 11:55 Partly Cloudy 64 18 54 12 68 68 SE 3 6 29.88 1012 10 16.09344 0 0
12:15 pm 12:15 Sunny 64 18 55 13 73 73 Calm 29.88 1012 10 16.09344 0 0
12:35 pm 12:35 Partly Cloudy 68 20 55 13 64 64 SW 6 9 29.88 1012 10 16.09344 0 0
12:55 pm 12:55 Partly Cloudy 70 21 55 13 60 60 WSW 7 11 29.88 1012 10 16.09344 0 0
1:15 pm 13:15 Partly Cloudy 70 21 55 13 60 60 WSW 10 17 29.88 1012 10 16.09344 0 0
1:35 pm 13:35 Cloudy 70 21 55 13 60 60 NW 7 11 29.88 1012 10 16.09344 0 0
1:55 pm 13:55 Cloudy 70 21 57 14 64 64 NW 8 13 29.88 1012 10 16.09344 0 0
2:15 pm 14:15 Mostly Cloudy 70 21 55 13 60 60 N 15 24 29.91 1013 10 16.09344 0 0
2:35 pm 14:35 Cloudy 68 20 55 13 64 64 N 17 28 29.94 1014 10 16.09344 0 0
2:55 pm 14:55 Partly Cloudy 68 20 57 14 69 69 N 12 19 29.94 1014 10 16.09344 0 0
3:15 pm 15:15 Partly Cloudy 70 21 55 13 60 60 N 20 31 29.94 1014 10 16.09344 0 0
3:35 pm 15:35 Sunny 70 21 55 13 60 60 NNW 29 46 29.94 1014 10 16.09344 0 0
3:55 pm 15:55 Partly Cloudy 68 20 54 12 60 60 NNW 22 35 29.97 1015 10 16.09344 0 0
4:15 pm 16:15 Sunny 68 20 54 12 60 60 N 23 37 29.97 1015 10 16.09344 0 0
4:35 pm 16:35 Partly Cloudy 66 19 54 12 64 64 N 22 35 30 1016 10 16.09344 0 0
4:55 pm 16:55 Partly Cloudy 64 18 54 12 68 68 N 22 35 30.03 1017 10 16.09344 0 0
5:15 pm 17:15 Mostly Cloudy 64 18 52 11 64 64 N 18 30 30.09 1019 10 16.09344 0 0
5:35 pm 17:35 Cloudy 61 16 52 11 72 72 N 23 37 30.09 1019 10 16.09344 0 0
5:55 pm 17:55 Partly Cloudy 61 16 50 10 68 68 N 17 28 30.12 1020 10 16.09344 0 0
6:15 pm 18:15 Sunny 59 15 50 10 72 72 N 12 19 30.15 1021 10 16.09344 0 0
6:35 pm 18:35 Partly Cloudy 59 15 50 10 72 72 NNE 14 22 30.15 1021 10 16.09344 0 0
6:55 pm 18:55 Partly Cloudy 59 15 48 9 68 68 N 14 22 30.15 1021 10 16.09344 0 0
7:15 pm 19:15 Partly Cloudy 57 14 46 8 67 67 N 15 24 30.18 1022 10 16.09344 0 0
7:35 pm 19:35 Partly Cloudy 55 13 46 8 72 72 NNE 10 17 30.21 1023 10 16.09344 0 0
7:55 pm 19:55 Sunny 54 12 46 8 77 77 N 10 17 30.21 1023 10 16.09344 0 0
8:15 pm 20:15 Partly Cloudy 54 12 46 8 77 77 N 12 19 30.21 1023 10 16.09344 0 0
8:35 pm 20:35 Partly Cloudy 54 12 45 7 72 72 N 13 20 30.24 1024 10 16.09344 0 0
8:55 pm 20:55 Clear 54 12 45 7 72 72 N 16 26 30.21 1023 10 16.09344 0 0
9:15 pm 21:15 Clear 52 11 43 6 72 72 N 13 20 30.27 1025 10 16.09344 0 0
9:35 pm 21:35 Clear 52 11 43 6 72 72 N 5 7 30.3 1026 10 16.09344 0 0
9:55 pm 21:55 Clear 52 11 43 6 72 72 N 10 17 30.3 1026 10 16.09344 0 0
10:15 pm 22:15 Clear 52 11 43 6 72 72 NNE 6 9 30.3 1026 10 16.09344 0 0
10:35 pm 22:35 Clear 52 11 43 6 72 72 N 6 9 30.3 1026 10 16.09344 0 0
10:55 pm 22:55 Clear 50 10 43 6 76 76 NNE 5 7 30.3 1026 10 16.09344 0 0
11:15 pm 23:15 Clear 50 10 43 6 76 76 NE 5 7 30.3 1026 10 16.09344 0 0
11:35 pm 23:35 Clear 50 10 41 5 71 71 NE 3 6 30.3 1026 10 16.09344 0 0
11:55 pm 23:55 Clear 50 10 41 5 71 71 Calm 30.33 1027 10 16.09344 0 0

Powered by AerisWeather